Погода в Кургане

Россия / Курганская область     55°26′29″N   65°20′39″E
темп.,
°C
ветер,
м/с
пор.,
м/с
влажн.,
%
обл.,
%
осадки,
мм/ч
давл.,
гПа
погр.,
м
6 декабря, пн
пн623:000зюз3793100 1.6 1015264
02:00−4з3594100 0.0 101688
05:00−5з1395100 0.0 101760
08:00−5зюз2393100 0.0 101696
11:00−3зюз2591100 0.1 1016252
14:00−2з3784100 0.1 1015662
17:00−6зсз369325 0.1 1017130
20:00−9сз5108314 0.0 1019454
7 декабря, вт
вт723:00−13сз49805 0.0 1022396
02:00−14сз49835 0.0 1024367
05:00−14зсз37875 0.0 1026258
08:00−15зсз26915 0.0 1028160
11:00−13зсз35835 0.0 1031283
14:00−11з34755 0.0 1032398
17:00−15юз36935 0.0 1034104
20:00−16юз36945 0.0 1034105
8 декабря, ср
ср823:00−16зюз35955 0.0 103690
02:00−17зюз36945 0.0 1036107
05:00−18зюз24965 0.0 103870
08:00−19з22985 0.0 103928
11:00−15сз12866 0.0 104099
14:00−12зюз12755 0.0 1041153
17:00−16ююз239499 0.0 104242
20:00−12ююз368998 0.0 1041154
9 декабря, чт
чт923:00−11ююз4885100 0.0 1040192
02:00−10ююз51282100 0.0 1040304
05:00−9ююз51287100 0.0 1039323
08:00−8ююз6138667 0.0 1038338
11:00−9ююз5128456 0.0 1038294
14:00−7ююз51183100 0.0 1038290
17:00−9ююз51285100 0.0 1038251
20:00−9ююз5118485 0.0 1038221
10 декабря, пт
пт1023:00−9ююз51180100 0.0 1037225
02:00−8ююз51278100 0.0 1037244
05:00−10ююз5127997 0.0 1036224
08:00−10ююз5137698 0.0 1036225
11:00−9ююз51471100 0.0 1035282
14:00−7ююз51372100 0.0 1034308
17:00−7ююз51375100 0.0 1034270
20:00−7ююз51376100 0.0 1033256